Location: Unspecified
(0.0000°N, 0.0000°E)
Time: 18:50:42
(UTC+00:00)

Vanguard 2 - All Passes

Search period start: 25 May 2016 00:00
Search period end: 04 June 2016 00:00
Orbit: 554 x 2940 km, 32.9° (Epoch: 24 May)

Date Brightness Start Highest point End Pass type
(mag) Time Alt. Az. Time Alt. Az. Time Alt. Az.
25 May - 00:38:45 10° WSW 00:54:11 41° NW 01:05:15 10° NNE visible
25 May - 03:04:06 10° NW 03:06:06 10° NNW 03:07:59 10° NNW visible
25 May - 09:38:58 10° NNW 09:42:14 24° NE 09:45:49 10° E daylight
25 May - 11:46:36 10° W 11:50:34 32° SSW 11:56:02 10° SE daylight
25 May - 18:22:31 10° SSW 18:32:07 20° SSE 18:43:15 10° ESE visible
25 May - 20:31:01 10° SW 20:47:00 48° SSE 21:03:04 10° ENE visible
25 May - 22:42:24 10° WSW 23:00:36 80° NW 23:15:10 10° NE visible
26 May - 00:59:08 10° W 01:12:53 31° NW 01:23:03 10° NNE visible
26 May - 09:56:47 10° NW 10:00:36 50° NE 10:05:00 10° ESE daylight
26 May - 12:06:02 10° WSW 12:09:25 19° SSW 12:13:42 10° SSE daylight
26 May - 18:40:25 10° SSW 18:51:43 25° SSE 19:04:54 10° ESE visible
26 May - 20:49:14 10° SW 21:05:58 60° SE 21:22:29 10° ENE visible
26 May - 23:01:29 10° WSW 23:19:17 64° NW 23:33:29 10° NE visible
27 May - 01:20:13 10° W 01:31:46 23° NW 01:40:39 10° NNE visible
27 May - 10:15:04 10° WNW 10:18:59 76° SW 10:23:39 10° SE daylight
27 May - 12:26:38 10° SW 12:28:26 12° SSW 12:30:25 10° S daylight
27 May - 16:53:01 10° S 16:56:10 11° SSE 16:59:36 10° SE daylight
27 May - 18:58:19 10° SSW 19:11:01 32° SSE 19:25:53 10° E visible
27 May - 21:07:36 10° SW 21:24:48 74° SE 21:41:33 10° ENE visible
27 May - 23:20:56 10° WSW 23:38:00 50° NW 23:51:38 10° NE visible
28 May - 01:42:07 10° WNW 01:50:54 17° NNW 01:58:02 10° N visible
28 May - 08:26:14 10° NNW 08:29:13 18° NNE 08:32:00 10° ENE daylight
28 May - 10:33:49 10° W 10:37:29 36° SSW 10:41:50 10° SE daylight
28 May - 17:09:47 10° S 17:15:58 14° SSE 17:23:13 10° SE daylight
28 May - 19:16:16 10° SSW 19:30:05 41° SE 19:46:15 10° E visible
28 May - 21:26:09 10° SW 21:43:35 89° NW 22:00:18 10° NE visible
28 May - 23:40:52 10° W 23:56:48 39° NW 00:09:36 10° NNE visible
29 May - 02:05:07 10° NW 02:10:20 13° NNW 02:14:54 10° N visible
29 May - 08:43:48 10° NW 08:47:46 35° NNE 08:51:25 10° E daylight
29 May - 10:53:10 10° WSW 10:56:06 19° SSW 10:59:30 10° SSE daylight
29 May - 17:27:09 10° S 17:35:29 19° SSE 17:45:43 10° ESE daylight
29 May - 19:34:20 10° SW 19:48:57 52° SE 20:06:04 10° ENE visible
29 May - 21:44:58 10° WSW 22:02:21 73° NW 22:18:48 10° NE visible
30 May - 00:01:22 10° W 00:15:46 30° NNW 00:27:29 10° NNE visible
30 May - 09:01:57 10° NW 09:06:13 76° NE 09:10:12 10° ESE daylight
30 May - 11:14:11 10° SW 11:14:54 10° SSW 11:15:38 10° SSW daylight
30 May - 17:44:45 10° SSW 17:54:42 25° SSE 18:07:23 10° E daylight
30 May - 19:52:32 10° SW 20:07:44 66° SE 20:25:27 10° ENE visible
30 May - 22:04:05 10° WSW 22:21:09 59° NW 22:37:06 10° NE visible
31 May - 00:22:31 10° WNW 00:34:59 23° NNW 00:45:17 10° NNE visible
31 May - 07:12:31 10° NNW 07:15:59 17° NNE 07:18:51 10° ENE daylight
31 May - 09:20:33 10° WNW 09:24:37 48° SW 09:28:31 10° SE daylight
31 May - 18:02:28 10° SSW 18:13:41 33° SE 18:28:19 10° E visible
31 May - 20:10:53 10° SW 20:26:28 81° SE 20:44:27 10° ENE visible
31 May - 22:23:37 10° WSW 22:40:03 47° NW 22:55:16 10° NE visible
01 Jun - 00:44:22 10° WNW 00:54:29 18° NNW 01:03:00 10° NNE visible
01 Jun - 07:30:02 10° NNW 07:34:45 29° NNE 07:38:26 10° E daylight
01 Jun - 09:39:42 10° W 09:43:03 23° SW 09:46:20 10° SSE daylight
01 Jun - 16:15:36 10° S 16:19:58 13° SSE 16:25:02 10° SE daylight
01 Jun - 18:20:20 10° SSW 18:32:28 43° SE 18:48:36 10° ENE visible
01 Jun - 20:29:28 10° WSW 20:45:13 82° NW 21:03:10 10° NE visible
01 Jun - 22:43:36 10° W 22:59:07 37° NNW 23:13:19 10° NNE visible
02 Jun - 01:06:54 10° NW 01:14:16 14° NNW 01:20:41 10° N visible
02 Jun - 05:40:51 10° N 05:43:19 12° NNE 05:45:28 10° NE daylight
02 Jun - 07:48:06 10° NW 07:53:22 56° NNE 07:57:20 10° ESE daylight
02 Jun - 09:59:56 10° WSW 10:01:34 12° SSW 10:03:11 10° S daylight
02 Jun - 16:32:16 10° S 16:39:08 18° SE 16:47:52 10° ESE daylight
02 Jun - 18:38:21 10° SW 18:51:07 56° SE 19:08:20 10° ENE visible
02 Jun - 20:48:19 10° WSW 21:04:03 67° NW 21:21:38 10° NE visible
02 Jun - 23:04:10 10° W 23:18:25 29° NNW 23:31:20 10° NNE visible
03 Jun - 01:29:53 10° NNW 01:34:18 12° NNW 01:38:19 10° N visible
03 Jun - 05:57:38 10° NNW 06:02:28 18° NNE 06:06:10 10° ENE daylight
03 Jun - 08:06:35 10° WNW 08:11:47 72° SW 08:15:48 10° SE daylight
03 Jun - 16:49:35 10° SSW 16:58:02 25° SE 17:09:29 10° E daylight
03 Jun - 18:56:32 10° SW 19:09:44 71° SE 19:27:38 10° ENE visible
03 Jun - 21:07:30 10° WSW 21:23:00 53° NNW 21:39:58 10° NE visible
03 Jun - 23:25:20 10° WNW 23:37:58 23° NNW 23:49:21 10° NNE visible
